Retour au catalogue

CZ-4C R/B

ActifLEO
NORAD 40112·ROCKET BODY·🇨🇳 China

Lancé Aug 9, 2014 depuis Jiuquan Satellite Launch Center

Loading…

Prochains Passages (prochaines 24 heures)

TLE

FraisSource: Space-Track

Époque: Sep 14, 2026, 15:28 UTC

1 40112U 14047D   26257.64508400 -.00000048  00000-0  26078-4 0  9993
2 40112  63.4105  21.6218 0569397   0.6666 359.5008 13.70437716605068

Suivez CZ-4C R/B en temps réel avec AllMySat

Download on the App Store